Weather History for Pellston, MI

Change the Weather History Date:

Saturday, January 12, 2013

  Actual Average Record
Temperature  
Mean Temperature 44 °F -  
Max Temperature 52 °F 25 °F 52 °F (2013)
Min Temperature 35 °F 8 °F -21 °F (1966)
Degree Days  
Heating Degree Days 21    
Moisture  
Dew Point 35 °F    
Average Humidity 76    
Maximum Humidity 96    
Minimum Humidity 54    
Precipitation  
Precipitation 0.00 in - - ()
Sea Level Pressure  
Sea Level Pressure 29.75 in    
Wind  
Wind Speed 11 mph (SW)    
Max Wind Speed 25 mph    
Max Gust Speed 38 mph    
Visibility 10 miles    
Events      
Averages and records for this station are not official NWS values.
T = Trace of Precipitation, MM = Missing Value Source: NWS Daily Summary

Daily Weather History Graph

Daily Weather History Graph

Search for Another Location

Airport:

Trip Planner

Search our weather history database for the weather conditions in past years. The results will help you decide how hot, cold, wet, or windy it might be!

Date:

Astronomy

Jan. 12, 2013 Rise Set
Actual Time 8:17 AM EST 5:18 PM EST
Civil Twilight 7:43 AM EST 5:51 PM EST
Nautical Twilight 7:06 AM EST 6:28 PM EST
Astronomical Twilight 6:31 AM EST 7:04 PM EST
Moon 8:30 AM EST (1/12) 6:52 PM EST (1/12)
Length of Visible Light 10h 08m
Length of Day
9h 01m
New Moon, 1% of the Moon is Illuminated
Jan 12
New Moon
Jan 18
First Quarter
Jan 26
Full
Feb 3
Last Quarter
Feb 10
New

Hourly Weather History & Observations

Time (EST) Temp. Windchill Dew Point Humidity Pressure Visibility Wind Dir Wind Speed Gust Speed Precip Events Conditions
12:54 AM 42.1 °F 38.4 °F 41.0 °F 96% 29.69 in 3.0 mi SSE 5.8 mph - N/A   Overcast
1:22 AM 42.8 °F 39.3 °F 41.0 °F 93% 29.66 in 10.0 mi South 5.8 mph - N/A   Overcast
1:54 AM 44.1 °F 40.1 °F 42.1 °F 93% 29.66 in 9.0 mi SSE 6.9 mph - N/A   Overcast
2:28 AM 44.6 °F 41.4 °F 42.8 °F 93% 29.65 in 8.0 mi SSE 5.8 mph - N/A   Scattered Clouds
2:54 AM 44.1 °F 39.5 °F 42.1 °F 93% 29.66 in 8.0 mi SSE 8.1 mph - N/A   Partly Cloudy
3:54 AM 45.0 °F 40.1 °F 42.1 °F 90% 29.66 in 10.0 mi SSE 9.2 mph - N/A   Clear
4:54 AM 45.0 °F 43.5 °F 42.1 °F 90% 29.63 in 10.0 mi SE 3.5 mph - N/A   Partly Cloudy
5:54 AM 46.0 °F 41.4 °F 42.1 °F 86% 29.61 in 10.0 mi SSE 9.2 mph - N/A   Clear
6:54 AM 48.9 °F - 43.0 °F 80% 29.61 in 10.0 mi SSW 11.5 mph 21.9 mph N/A   Clear
7:54 AM 48.9 °F - 43.0 °F 80% 29.62 in 10.0 mi South 10.4 mph 20.7 mph N/A   Clear
8:54 AM 48.0 °F - 43.0 °F 83% 29.63 in 10.0 mi South 11.5 mph 19.6 mph N/A   Clear
9:54 AM 50.0 °F - 43.0 °F 77% 29.63 in 10.0 mi SW 17.3 mph 27.6 mph N/A   Clear
10:54 AM 51.1 °F - 42.1 °F 71% 29.64 in 10.0 mi SW 17.3 mph 27.6 mph N/A   Clear
11:54 AM 52.0 °F - 39.0 °F 61% 29.64 in 10.0 mi SW 18.4 mph 28.8 mph N/A   Clear
12:54 PM 51.1 °F - 35.1 °F 54% 29.66 in 10.0 mi WSW 18.4 mph 35.7 mph N/A   Clear
1:54 PM 46.0 °F 38.3 °F 33.1 °F 61% 29.71 in 10.0 mi WSW 20.7 mph 31.1 mph N/A   Clear
2:54 PM 42.1 °F 32.6 °F 32.0 °F 67% 29.78 in 10.0 mi WSW 23.0 mph 38.0 mph N/A   Partly Cloudy
3:22 PM 41.0 °F 30.7 °F 32.0 °F 70% 29.77 in 10.0 mi WSW 25.3 mph 34.5 mph N/A   Mostly Cloudy
3:45 PM 39.2 °F 29.0 °F 30.2 °F 70% 29.79 in 10.0 mi WSW 21.9 mph 32.2 mph N/A   Scattered Clouds
3:54 PM 39.9 °F 30.8 °F 30.0 °F 68% 29.81 in 10.0 mi WSW 18.4 mph 33.4 mph N/A   Partly Cloudy
4:40 PM 39.2 °F 32.0 °F 30.2 °F 70% 29.81 in 10.0 mi WSW 11.5 mph 29.9 mph N/A   Mostly Cloudy
4:54 PM 39.0 °F 29.6 °F 30.9 °F 73% 29.83 in 10.0 mi WSW 18.4 mph 26.5 mph N/A   Scattered Clouds
5:54 PM 37.9 °F 29.2 °F 28.9 °F 70% 29.85 in 10.0 mi WSW 15.0 mph 28.8 mph N/A   Clear
6:54 PM 37.9 °F 29.2 °F 30.0 °F 73% 29.87 in 10.0 mi WSW 15.0 mph 25.3 mph N/A   Partly Cloudy
7:10 PM 37.4 °F 28.9 °F 30.2 °F 75% 29.87 in 10.0 mi WSW 13.8 mph 25.3 mph N/A   Mostly Cloudy
7:32 PM 37.4 °F 27.5 °F 28.4 °F 70% 29.88 in 10.0 mi WSW 18.4 mph 24.2 mph N/A   Scattered Clouds
7:54 PM 37.0 °F 28.9 °F 27.0 °F 67% 29.90 in 10.0 mi WSW 12.7 mph 26.5 mph N/A   Clear
8:54 PM 36.0 °F - 28.0 °F 73% 29.88 in 10.0 mi Calm Calm - N/A   Mostly Cloudy
9:54 PM 36.0 °F 32.1 °F 28.0 °F 73% 29.90 in 10.0 mi WSW 4.6 mph - N/A   Overcast
10:54 PM 36.0 °F 31.1 °F 28.0 °F 73% 29.94 in 10.0 mi SW 5.8 mph - N/A   Overcast
11:54 PM 35.1 °F 26.9 °F 28.0 °F 76% 29.92 in 10.0 mi WSW 11.5 mph 17.3 mph N/A   Overcast